AirNav   Bose Proflight Series 2 Wireless Aviation Headset
 
 1707 users online  

1ID2 Horseshoe Bend Heliport
Horseshoe Bend, Idaho, USA

GOING TO HORSESHOE BEND?


FAA INFORMATION EFFECTIVE 07 NOVEMBER 2019

Location

FAA Identifier: 1ID2
Lat/Long: 43-54-52.0000N 116-11-48.0000W
43-54.866667N 116-11.800000W
43.9144444,-116.1966667
(estimated)
Elevation: 2300 ft. / 701 m (estimated)
Variation: 16E (2000)
From city: 20 miles S of HORSESHOE BEND, ID
Time zone: UTC -7 (UTC -6 during Daylight Saving Time)
Zip code: 83629

Heliport Operations

Heliport use: Private use. Permission required prior to landing
Activation date: 07/2002
Control tower: no
ARTCC: SALT LAKE CITY CENTER
FSS: BOISE FLIGHT SERVICE STATION
Attendance: UNATNDD
Wind indicator: lighted
Segmented circle: no
Lights: 1900-2330

Nearby radio navigation aids

VOR radial/distance  VOR name  Freq  Var
BOIr342/21.7BOISE VORTAC113.3017E

 
NDB name  Hdg/Dist  Freq  Var  ID
ONTARIO087/35.630513EONO --- -. ---

Heliport Services

Runway Information

Helipad H1

Dimensions: 30 x 30 ft. / 9 x 9 m
Surface: concrete
Runway edge lights: PERI
Traffic pattern: leftleft

Heliport Ownership and Management from official FAA records

Ownership: Publicly-owned
Owner: CITY OF HORSESHOE BEND
112 ADA STREET, PO BOX 246
HORSESHOE BEND, ID 83629
Phone 208-793-2219
Manager: PATRICK GOFF, MAYOR
112 ADA STREET, PO BOX 246
HORSESHOE BEND, ID 83629
Phone 208-793-2219
ADDITIONAL CONTACT: TERRIR NOLAN P.O. BOX 246 112 ADA ST HORSESHOE BEND, ID 83629 208-739-2219 HAWSON83629@GMAIL.COM

Additional Remarks

FOR CD CTC BIG SKY APCH AT 208-364-5860/5861.

Instrument Procedures

There are no published instrument procedures at 1ID2.

Some nearby airports with instrument procedures:

KBOI - Boise Air Terminal/Gowen Field (21 nm S)
KMAN - Nampa Municipal Airport (24 nm SW)
KEUL - Caldwell Industrial Airport (25 nm SW)
KONO - Ontario Municipal Airport (36 nm W)
S87 - Weiser Municipal Airport (37 nm NW)
 
Loc | Ops | Rwys | IFR | FBO | Links
Com | Nav | Svcs | Stats | Notes
Area around 1ID2 (Horseshoe Bend Heliport)
 
Road maps at: MapQuest Bing Google
 
Aerial photo
No photo
 
Sectional chart

 
Airport distance calculator
Flying to Horseshoe Bend Heliport? Find the distance to fly.

From to 1ID2

Sunrise and sunset
Times for 20-Nov-2019
 Local
(UTC-7)
 Zulu
(UTC)
Morning civil twilight07:1614:16
Sunrise07:4714:47
Sunset17:1400:14
Evening civil twilight17:4500:45

Current date and time
Zulu (UTC)  20-Nov-2019 17:55:07
Local (UTC-7)  20-Nov-2019 10:55:07
 
METAR
KBOI 
21nm S 
201653Z 00000KT 10SM CLR 02/M01 A2983 RMK AO2 SLP110 T00221011
KMAN 
24nm SW 
201735Z AUTO 32005KT 10SM CLR 06/02 A2984 RMK A01
KEUL 
26nm SW 
201656Z AUTO 27010KT 10SM FEW080 06/00 A2984 RMK AO2 SLP116 T00560000
KONO 
36nm W 
201653Z AUTO 34018G25KT 10SM CLR 09/M01 A2986 RMK AO2 PK WND 33028/1606 SLP116 T00891006
TAF
KBOI 
21nm S 
201140Z 2012/2112 VRB06KT P6SM BKN150 FM202100 32008KT P6SM BKN150 TEMPO 2021/2024 33011G17KT FM210100 16007KT P6SM BKN150
KEUL 
26nm SW 
201140Z 2012/2112 29012KT P6SM SCT150 FM201500 32011KT P6SM SCT150 TEMPO 2021/2024 35015G25KT FM210300 30011KT P6SM BKN150
NOTAMs
Click for the latest NOTAMs
NOTAMs are issued by the DoD/FAA and will open in a separate window not controlled by AirNav.

 

 
 

Would you like to see your business listed on this page?

 If your business provides an interesting product or service to pilots, flight crews, aircraft, or users of the Horseshoe Bend Heliport, you should consider listing it here.  To start the listing process, click on the button below
 
Add a business
 

Other Pages about Horseshoe Bend Heliport

Update a link
 
Copyright © AirNav, LLC. All rights reserved. Privacy Policy  Contact